#timestamp,LO_Frequency,Hit,StdDev 
1668286815.0,286047000.5,N
1668286815.9,286047000.5,N
1668286835.8,286047000.9,N
1668286855.6,286047000.7,N
1668286875.4,286046999.7,N
1668286895.3,286047000.0,N
1668286915.1,286047000.7,N
1668286935.9,286047001.1,N
1668286955.7,286047000.3,N
1668286975.5,286047000.1,N
1668286995.4,286047002.5,N
1668287015.2,286047002.1,N
1668287035.1,286047001.9,N
1668287036.0,286047001.9,N
1668287055.8,286046998.1,N
1668287075.6,286047000.6,N
1668287095.5,286047000.6,N
1668287115.3,286047001.0,N
1668287135.2,286046999.9,N
1668287155.9,286047002.2,N
1668287175.7,286047000.1,N
1668287195.6,286047002.5,N
1668287215.4,286047000.1,N
1668287235.2,286047001.9,N
1668287255.1,286047001.4,N
1668287256.0,286047001.4,N
1668287275.8,286047004.0,Y
1668287295.7,286047001.3,P
1668287315.5,286047001.6,P
1668287335.3,286047002.5,P
1668287355.2,286047001.6,N
1668287375.0,286047000.1,N
1668287375.9,286047000.1,N
1668287395.8,286047002.7,Y
1668287415.6,286047000.8,P
1668287435.4,286047000.3,N
1668287455.3,286047002.2,P
1668287475.1,286046999.7,N
1668287495.8,286046999.1,N
1668287515.7,286047001.1,N
1668287535.5,286047000.4,N
1668287555.4,286047000.1,N
1668287575.2,286047002.1,N
1668287595.0,286047002.2,N
1668287595.9,286047002.2,N
1668287615.8,286047002.6,N
1668287635.6,286047002.4,N
1668287655.4,286047000.1,N
1668287675.3,286047002.7,N
1668287695.1,286046999.7,N
1668287715.9,286047000.5,N
1668287735.7,286047002.8,N
1668287755.5,286047000.3,N
1668287775.4,286047002.6,N
1668287795.2,286047011.9,Y
1668287815.1,286046999.3,P
1668287816.0,286046999.3,N
1668287835.8,286046999.1,N
1668287855.6,286046999.4,N
1668287875.5,286046998.5,N
1668287895.3,286046998.8,N
1668287915.1,286046996.9,Y
1668287935.9,286046998.1,P
1668287955.7,286047000.4,N
1668287975.6,286047000.3,N
1668287995.4,286046999.7,N
1668288015.2,286047001.8,N
1668288035.1,286047002.0,N
1668288036.0,286047002.0,N
1668288055.8,286047002.1,N
1668288075.7,286047002.4,N
1668288095.5,286047001.9,N
1668288115.3,286047000.2,N
1668288135.2,286046998.7,N
1668288155.0,286047000.8,N
1668288155.9,286047000.8,N
1668288175.7,286047000.4,N
1668288195.6,286046998.7,N
1668288215.4,286046998.2,N
1668288235.3,286047001.0,N
1668288255.1,286046998.8,N
1668288256.0,286046998.8,N
1668288275.8,286046998.4,N
1668288295.7,286046996.6,N
1668288315.5,286046999.5,N
1668288335.3,286046999.7,N
1668288355.2,286046998.2,N
1668288375.0,286047000.9,N
1668288375.9,286047000.9,N
1668288395.8,286047002.0,N
1668288415.6,286047004.2,N
1668288435.4,286047002.0,N
1668288455.3,286047001.3,N
1668288475.1,286047004.0,N
1668288495.9,286047004.2,N
1668288515.7,286047003.7,N
1668288535.5,286047003.9,N
1668288555.4,286047001.6,N
1668288575.2,286046999.7,N
1668288595.0,286047000.7,N
1668288595.9,286047000.7,N
1668288615.8,286046999.1,N
1668288635.6,286047001.2,N
1668288655.5,286046999.3,N
1668288675.3,286047001.0,N
1668288695.1,286047002.8,N
1668288715.9,286046999.0,N
1668288735.7,286046999.2,N
1668288755.5,286046998.9,N
1668288775.4,286047000.7,N
1668288795.2,286047002.3,N
1668288815.1,286046998.1,N
1668288816.0,286046998.1,N
1668288835.8,286046997.1,N
1668288855.6,286046996.8,N
1668288875.5,286046998.8,N
1668288895.3,286047000.0,N
1668288915.1,286047002.4,N
1668288935.9,286047001.7,N
1668288955.7,286047001.8,N
1668288975.6,286047001.9,N
1668288995.4,286047004.1,N
1668289015.2,286047003.9,N
1668289035.1,286047004.2,N
1668289036.0,286047004.2,N
1668289055.8,286047001.5,N
1668289075.7,286047004.2,N
1668289095.5,286047002.0,N
1668289115.3,286047003.9,N
1668289135.2,286047004.1,N
1668289155.0,286047002.1,N
1668289155.9,286047002.1,N
1668289175.8,286047002.1,N
1668289195.6,286047004.4,N
1668289215.2,286047004.1,N
1668289235.0,286047003.2,N
1668289235.9,286047003.2,N
1668289255.8,286047005.8,N
1668289275.6,286047003.3,N
1668289295.5,286047006.0,N
1668289315.3,286047003.2,N
1668289335.1,286047004.1,N
1668289355.9,286047005.8,N
1668289375.7,286047005.7,N
1668289395.6,286047006.3,Y
1668289415.4,286047001.8,P
1668289435.2,286047002.3,P
1668289455.1,286046999.7,N
1668289456.0,286046999.7,N
1668289475.8,286047001.9,N
1668289495.7,286047001.7,N
1668289515.5,286047003.9,Y
1668289535.3,286047001.8,P
1668289555.2,286047000.1,N
1668289575.0,286047001.0,N
1668289575.9,286047001.0,N
1668289595.8,286047001.0,N
1668289615.6,286046998.8,N
1668289635.5,286046997.1,Y
1668289655.3,286046999.2,P
1668289675.1,286046997.2,P
1668289695.9,286046996.6,N
1668289715.7,286046999.2,N
1668289735.6,286046996.9,N
1668289755.4,286046996.6,N
1668289775.2,286046997.1,N
1668289795.1,286046997.5,N
1668289796.0,286046997.5,N
1668289815.8,286046995.3,Y
1668289835.7,286046999.3,P
1668289855.5,286046998.0,N
1668289875.3,286046997.4,P
1668289895.2,286046999.0,N
1668289915.0,286047000.0,N
1668289915.9,286047000.0,N
1668289935.2,286047002.0,N
1668289955.1,286047002.2,N
1668289956.0,286047002.2,N
1668289975.8,286047000.8,N
1668289995.7,286047000.8,N
1668290015.5,286047000.7,N
1668290035.3,286046999.1,N
1668290055.2,286046999.1,N
1668290075.0,286046996.6,N
1668290075.9,286046996.6,N
1668290095.8,286046998.5,N
1668290115.6,286047001.0,N
1668290135.4,286047000.0,N
1668290155.3,286047002.7,N
1668290175.1,286047002.6,N
1668290195.8,286046999.7,N
1668290215.7,286047002.8,N
1668290235.5,286047002.7,N
1668290255.4,286047001.9,N
1668290275.2,286047002.2,N
1668290295.0,286047001.6,N
1668290295.9,286047001.6,N
1668290315.8,286047003.9,N
1668290335.6,286047001.5,N
1668290355.4,286047001.9,N
1668290375.3,286046999.4,N
1668290395.1,286046998.7,N
